Regional Weather Roundup
Issued by NWS

Home | Current Version | Previous Version | Graphics & Text | Print | Product List | Glossary On
Versions: 1 2 3 4 5 6 7 8 9 10 11 12 13 14 15 16 17 18 19 20 21 22 23 24 25 26 27 28 29 30 31 32 33 34 35 36 37 38 39 40 41 42 43 44 45 46 47 48 49 50
392
ASUS43 KMPX 181501
RWRMN
WEATHER ROUNDUP FOR MINNESOTA
NATIONAL WEATHER SERVICE TWIN CITIES/CHANHASSEN MN
900 AM CST SAT NOV 18 2017


NOTE: "FAIR" INDICATES FEW OR NO CLOUDS BELOW 12,000 FEET WITH NO
SIGNIFICANT WEATHER AND/OR OBSTRUCTIONS TO VISIBILITY. N/A MEANS
CURRENT SKY AND/OR WEATHER CONDITIONS ARE NOT AVAILABLE.

MNZ060>063-068>070-181600-
   Twin Cities Metro

CITY           SKY/WX    TMP DP  RH WIND       PRES   REMARKS
TWIN CITIES    CLOUDY    32  28  85 N10       29.80R WCI  24
ST PAUL        MOSUNNY   32  28  85 NW10      29.82R WCI  24
CRYSTAL        MOSUNNY   31  23  72 NW10      29.80R WCI  22
BLAINE         PTSUNNY   32  28  86 NW12      29.81R WCI  23
LAKEVILLE      CLOUDY    30  28  93 NW10      29.79R WCI  21
EDEN PRAIRIE   CLOUDY    32  26  78 NW13      29.80R WCI  22
SOUTH ST PAUL  CLOUDY    33  28  85 N10       29.79S WCI  24
$$
MNZ001>005-007-008-013>017-022>024-027-028-181600-
   Northwest Minnesota

CITY           SKY/WX    TMP DP  RH WIND       PRES   REMARKS
HALLOCK        FLURRIES  16  12  86 NW14      29.97R WCI   1
ROSEAU         CLOUDY    16  10  79 W7        29.92R WCI   6
WARROAD        LGT SNOW  16  10  79 W8        29.91R WCI   5
CROOKSTON      SUNNY     18  12  79 NW15G23   29.98R WCI   3
FOSSTON        CLOUDY    14  10  85 NW10      29.93R WCI   1
DETROIT LAKES  PTSUNNY   19  16  86 NW15G23   29.93R WCI   5
MOORHEAD       MOSUNNY   19  10  68 NW18      30.00R WCI   4
PARK RAPIDS    PTSUNNY   20  13  74 NW14      29.86R WCI   7
MAHNOMEN       CLOUDY    17  12  80 NW12      29.93R WCI   4
$$
MNZ006-009>011-018-025>026-181600-
   North Central Minnesota

CITY           SKY/WX    TMP DP  RH WIND       PRES   REMARKS
BAUDETTE       CLOUDY    17  13  84 NW9       29.86R WCI   6
FLAG ISLAND    PTSUNNY   16  10  79 NW15      29.87R WCI   1
INTL FALLS     CLOUDY    19  14  81 NW7       29.82S WCI  10
WASKISH        CLOUDY    18  12  79 NW9       29.87R WCI   6
BIG FORK       CLOUDY    18  14  86 CALM      29.83R
LONGVILLE      CLOUDY    21  16  79 NW6       29.84S WCI  14
GRAND RAPIDS   CLOUDY    19  15  84 NW10      29.83S WCI   7
CRANE LAKE     LGT SNOW  18  18 100 CALM      29.83S
ORR            LGT SNOW  18  12  79 NW5       29.78S WCI  11
COOK           CLOUDY    18  16  93 W5        29.81S WCI  11
WALKER         FAIR      18  13  82 NW7       29.86R WCI   8
$$
MNZ012-019>021-037-181600-
   Northeast Minnesota

CITY           SKY/WX    TMP DP  RH WIND       PRES   REMARKS
DULUTH         SUNNY     22  20  92 NW13      29.74R WCI  10
ELY            MOSUNNY   21  18  86 NW7       29.77S WCI  13
HIBBING        MOSUNNY   18  14  84 NW9       29.80S WCI   7
EVELETH        CLOUDY    18  14  86 N9        29.80S WCI   6
DULUTH HARBOR  SUNNY     28  23  80 W5        29.80R WCI  23
TWO HARBORS    SUNNY     30  25  80 N7G18     29.72S WCI  23
SILVER BAY     MOSUNNY   28  23  80 NW7       29.71F WCI  21
GRAND MARAIS     N/A     31  24  75 CALM      29.73S
G MARAIS ARPRT PTSUNNY   23  18  80 NW12G18   29.67F WCI  12
$$
MNZ029>031-032-039>041-046>048-054>057-064-181600-
   West Central Minnesota

CITY           SKY/WX    TMP DP  RH WIND       PRES   REMARKS
FERGUS FALLS   CLOUDY    19  16  86 NW17      29.98R WCI   4
WHEATON        PTSUNNY   25  18  74 NW15      29.98R WCI  12
MORRIS         MOSUNNY   21  18  86 NW22G28   29.91R WCI   5
ALEXANDRIA     MOSUNNY   22  17  81 NW15      29.89R WCI   9
ELBOW LAKE     PTSUNNY   20  17  87 W14       29.94R FOG     WCI   7
WADENA         MOSUNNY   19  16  86 NW13      29.87S WCI   7
GLENWOOD       SUNNY     21  18  86 NW16      29.89R WCI   7
APPLETON       SUNNY     25  18  74 NW14G20   29.94R WCI  13
BENSON         SUNNY     23  18  80 N16G23    29.93R WCI  10
ORTONVILLE     PTSUNNY   23  18  80 MISG      29.95R
MADISON        SUNNY     27  19  74 N21G26    29.96R WCI  13
WILLMAR        FAIR      25  19  80 NW15      29.90R WCI  12
$$
MNZ033>034-036-042>043-049>051-058-059-181600-
   Central Minnesota

CITY           SKY/WX    TMP DP  RH WIND       PRES   REMARKS
ST CLOUD       SUNNY     27  22  81 NW14      29.84R WCI  16
SAUK CENTRE    FAIR      23  17  77 NW14      29.88R WCI  11
PAYNESVILLE    SUNNY     26  22  84 NW12G17   29.87R WCI  16
AITKIN         MOSUNNY   23  16  74 NW9       29.82R WCI  13
PINE RIVER     MOSUNNY   19  14  79 NW6       29.88R WCI  11
BRAINERD       PTSUNNY   23  16  74 NW10      29.84S WCI  12
STAPLES        CLOUDY    19  16  86 NW10      29.87R WCI   8
LONG PRAIRIE   FAIR      21  18  86 W13       29.87R WCI   9
LITTLE FALLS   MOSUNNY   27  16  63 NW5       29.86R WCI  21
LITCHFIELD     SUNNY     28  25  86 NW15G22   29.85S WCI  17
BUFFALO        MOSUNNY   29  23  79 NW8       29.84R WCI  21
MAPLE LAKE     CLOUDY    29  26  86 NW9       29.85R WCI  21
HUTCHINSON     SUNNY     30  25  81 NW15      29.85R WCI  19
$$
MNZ037-044-045-052-053-181600-
   East Central Minnesota

CITY           SKY/WX    TMP DP  RH WIND       PRES   REMARKS
PRINCETON      MOSUNNY   28  25  86 NW9       29.82S WCI  20
MORA           SUNNY     27  21  80 N14       29.82R WCI  15
CAMBRIDGE      MOSUNNY   30  21  69 NW7       29.82R WCI  23
RUSH CITY      CLOUDY    27  22  82 NW9       29.81R WCI  18
MOOSE LAKE     SUNNY     27  19  74 N8        29.79R WCI  18
CLOQUET        SUNNY     23  18  80 NW13G20   29.76S WCI  11
MCGREGOR       SUNNY     23  19  86 NW10G17   29.82R WCI  12
$$
MNZ071>073-080-081-089-090-097-098-181600-
   Southwest Minnesota

CITY           SKY/WX    TMP DP  RH WIND       PRES   REMARKS
MONTEVIDEO     SUNNY     25  19  80 N17       29.93R WCI  11
GRANITE FALLS  SUNNY     26  20  80 NW18      29.94R WCI  12
CANBY          PTSUNNY   27  21  79 W14G20    29.96R WCI  15
MARSHALL       SUNNY     25  19  78 NW18G25   29.94R WCI  11
REDWOOD FALLS  SUNNY     26  16  65 NW13      29.89R WCI  15
OLIVIA         SUNNY     27  21  80 NW14G21   29.88R WCI  15
PIPESTONE      SUNNY     27  21  80 N16       29.91R WCI  14
WINDOM           N/A     27  12  54 NW23G29   29.86R WCI  12
WORTHINGTON    CLOUDY    27  20  75 NW17G25   29.88R WCI  14
JACKSON        SUNNY     30  21  69 NW18G25   29.85R WCI  18
SLAYTON        SUNNY     25  20  80 NW17      29.89R WCI  12
$$
MNZ065>067-074>077-082>085-091>093-181600-
   South Central Minnesota

CITY           SKY/WX    TMP DP  RH WIND       PRES   REMARKS
MANKATO        PTSUNNY   29  26  89 NW14      29.83R WCI  18
NEW ULM        MOSUNNY   27  19  74 NW16G23   29.85R WCI  14
ST JAMES       MOSUNNY   27  21  80 NW20G25   29.86R WCI  13
FAIRMONT       CLOUDY    28  23  81 NW17G24   29.84R WCI  16
GLENCOE        MOSUNNY   32  30  94 NW14      29.83R WCI  22
FARIBAULT      CLOUDY    34  30  86 NW9       29.79R WCI  26
OWATONNA       CLOUDY    34  30  86 NW13      29.78R WCI  25
WASECA         MOSUNNY   32  30  93 NW12      29.80R WCI  23
ALBERT LEA     CLOUDY    32  30  93 NW10G18   29.76S FOG     WCI  24
$$
MNZ078>079-086>088-094>096-181600-
   Southeast Minnesota

CITY           SKY/WX    TMP DP  RH WIND       PRES   REMARKS
ROCHESTER      CLOUDY    34  32  92 N18G28    29.72F WCI  23
RED WING       CLOUDY    36  28  75 NW5       29.77R
STANTON        CLOUDY    34  30  86 NW12      29.78R WCI  25
DODGE CENTER   CLOUDY    34  30  86 N16G23    29.74S WCI  23
WINONA         CLOUDY    36  32  87 N9        29.73S
AUSTIN         CLOUDY    34  30  86 N16G22    29.74S WCI  23
PRESTON        CLOUDY    33  31  91 N15G25    29.70F WCI  23
$$
ABBREVIATIONS USED IN REMARKS
   TC - TEMPERATURES IN CELSIUS
  WCI - WIND CHILL INDEX
   HX - HEAT INDEX
  VSB - VISIBILITY
$$




USA.gov is the U.S. government's official web portal to all federal, state and local government web resources and services.